Content
SEND FEEDBACK

Daily
Averages
Monthly
Summary
Mexico

CANCUN, QUINTANA ROO


Home > North America > Mexico > Quintana Roo
Elevation: 9 meters     Latitude: 21 09N     Longitude: 086 49W

WEATHER
 
SELECT A DAY
Number of Records: 163,905;   Date Range: 1/1/95 - 8/10/14
 
SHARE

PRINT THIS DATA

[ ← Previous Day ]
WEATHER ALMANAC - 21 JANUARY, 2013
[ Next Day → ]
[ °F ]   °C
Weather ElementAverageHighLow
Temperature21.8 °C27 °C (1:44 pm)17 °C (4:41 am)
Dewpoint17.6 °C19 °C (8:44 am)16 °C (5:44 am)
Humidity78.3 %100 % (4:41 am)54 % (1:44 pm)
Barometer1017.9 hPa1019.6 hPa (9:41 am)1016.6 hPa (2:41 am)
Wind Speed8.7 km/h13 km/h (2:47 pm)
Weather ElementAverage
Visibility11.3 km
Wind DirectionSSW (218.7 °)

Weather ElementTotal
Precipitation---
Cooling Degree Days3.7 (Base 18.3)
Growing Degree Days12 (Base 10)
Averaged from 23 records on 21 January, 2013
WEATHER CONDITIONS BREAKOUT
WIND DIRECTION BREAKOUT
WEATHER BY HOUR - 21 JANUARY, 2013
[ °F ]   °C
Local TimeTemperatureDewpointHumidityBarometerVisibilityWind DirectionWind SpeedGust SpeedPrecipitationEventsConditions
1:44 AM18 °C17 °C94 %1017.3 hPa11.3 kmNNW (340°)7.4 km/hPartly Cloudy
2:41 AM18 °C17 °C94 %1016.6 hPa11.3 kmNNW (330°)9.3 km/hPartly Cloudy
3:43 AM18 °C17 °C94 %1017.6 hPa11.3 kmNW (320°)9.3 km/hPartly Cloudy
4:41 AM17 °C17 °C100 %1017.3 hPa11.3 kmNNW (330°)7.4 km/hPartly Cloudy
5:44 AM17 °C16 °C94 %1017.3 hPa11.3 kmNNW (330°)9.3 km/hScattered Clouds
6:41 AM17 °C16 °C94 %1017.9 hPa11.3 kmNNW (330°)11.1 km/hScattered Clouds
7:47 AM20 °C17 °C83 %1019 hPa11.3 kmNW (320°)9.3 km/hScattered Clouds
8:44 AM24 °C19 °C73 %1019.3 hPa11.3 kmNNW (330°)7.4 km/hScattered Clouds
9:41 AM25 °C18 °C65 %1019.6 hPa11.3 kmNorth (360°)9.3 km/hMostly Cloudy
10:44 AM25 °C18 °C65 %1019.6 hPa11.3 kmNNE (30°)7.4 km/hMostly Cloudy
11:47 AM26 °C17 °C57 %1019 hPa11.3 kmNE (40°)7.4 km/hMostly Cloudy
12:42 PM26 °C18 °C61 %1017.9 hPa11.3 kmENE (60°)11.1 km/hMostly Cloudy
1:44 PM27 °C17 °C54 %1017.3 hPa11.3 kmNE (40°)11.1 km/hMostly Cloudy
2:47 PM26 °C17 °C57 %1017.3 hPa11.3 kmENE (60°)13 km/hMostly Cloudy
3:43 PM26 °C17 °C57 %1017.3 hPa11.3 kmNE (40°)11.1 km/hMostly Cloudy
4:47 PM25 °C18 °C65 %1017.3 hPa11.3 kmENE (60°)9.3 km/hMostly Cloudy
5:46 PM23 °C18 °C73 %1017.6 hPa11.3 kmNNE (20°)3.7 km/hMostly Cloudy
6:46 PM22 °C18 °C78 %1017.6 hPa11.3 kmNorth (10°)5.6 km/hMostly Cloudy
7:45 PM21 °C18 °C83 %1017.9 hPa11.3 kmNorth (360°)3.7 km/hMostly Cloudy
8:43 PM21 °C18 °C83 %1018.6 hPa11.3 kmNNW (330°)7.4 km/hScattered Clouds
9:48 PM20 °C18 °C88 %1019 hPa11.3 kmNNW (330°)9.3 km/hScattered Clouds
10:47 PM20 °C19 °C94 %1018.6 hPa11.3 kmNNW (330°)9.3 km/hScattered Clouds
11:46 PM20 °C19 °C94 %1016.9 hPa11.3 kmNNW (330°)9.3 km/hScattered Clouds
Hourly data recorded from MMUN, located 0 kilometers away from Cancun, Quintana Roo







STORIES FROM OUR PARTNERS